Date String (YYYY-MM-DD hh:mm:ss) UTC,Instrument flags,Ambient pressure (hPa),Sample flow (lpm),Bypass flow (lpm),Sample temperature (°C),Ambient temperature (°C),ASC tube jacket temperature (°C),LED temperature (°C),Box temperature (°C),Sample RH (%),Span deviation,Mass concentration (μg/m³),Mass concentration (μg/m³),Mass concentration (μg/m³)
DateTimeUTC,F1_M11,P_M11,Q1_M11,Q2_M11,T1_M11,T2_M11,T3_M11,T4_M11,T5_M11,U1_M11,ZSPAN_M11,X0_M11,X2_M11,X1_M11
2023-05-11 03:00:00,,0826.6,5.00,0.00,28.2,26.7,00.0,36.6,30.0,23.6,0000.0,0008.41,0003.72,0002.68
2023-05-11 03:01:00,,0826.6,5.00,0.00,28.2,26.6,00.0,36.6,30.0,24.3,0000.0,0008.31,0003.67,0002.65
2023-05-11 03:02:00,,0826.6,5.00,0.00,28.2,26.6,00.0,36.6,29.9,24.6,0000.0,0008.26,0003.64,0002.63
2023-05-11 03:03:00,,0826.7,4.99,0.00,28.2,26.5,00.0,36.6,29.8,24.8,0000.0,0008.20,0003.62,0002.65
2023-05-11 03:04:00,,0826.8,5.00,0.00,28.2,26.4,00.0,36.6,29.8,24.9,0000.0,0008.27,0003.62,0002.62
2023-05-11 03:05:00,,0826.8,5.02,0.00,28.2,26.3,00.0,36.6,29.8,24.8,0000.0,0008.53,0003.63,0002.62
2023-05-11 03:06:00,,0826.8,5.00,0.00,28.1,26.3,00.0,36.6,29.8,24.9,0000.0,0008.49,0003.59,0002.64
2023-05-11 03:07:00,,0826.8,4.99,0.00,28.1,26.3,00.0,36.6,29.8,25.0,0000.0,0008.45,0003.60,0002.67
2023-05-11 03:08:00,,0826.9,5.00,0.00,28.1,26.2,00.0,36.6,29.7,25.4,0000.0,0008.48,0003.61,0002.72
2023-05-11 03:09:00,,0826.9,5.01,0.00,28.1,26.2,00.0,36.6,29.7,25.6,0000.0,0008.25,0003.63,0002.78
2023-05-11 03:10:00,,0827.0,5.01,0.00,28.1,26.2,00.0,36.6,29.6,25.5,0000.0,0008.27,0003.66,0002.83
2023-05-11 03:11:00,,0827.0,4.99,0.00,28.0,26.1,00.0,36.6,29.6,25.6,0000.0,0007.63,0003.69,0002.88
2023-05-11 03:12:00,,0827.0,4.99,0.00,28.0,26.1,00.0,36.5,29.6,25.6,0000.0,0007.63,0003.75,0002.95
2023-05-11 03:13:00,,0827.1,5.01,0.00,28.0,26.1,00.0,36.5,29.6,25.8,0000.0,0007.61,0003.77,0003.00
2023-05-11 03:14:00,,0827.1,5.01,0.00,28.0,26.0,00.0,36.5,29.6,25.8,0000.0,0007.76,0003.82,0003.02
2023-05-11 03:15:00,,0827.1,5.00,0.00,27.9,26.0,00.0,36.5,29.5,25.7,0000.0,0007.76,0003.84,0003.04
2023-05-11 03:16:00,,0827.2,4.99,0.00,27.9,26.0,00.0,36.5,29.5,25.6,0000.0,0007.57,0003.82,0003.06
2023-05-11 03:17:00,,0827.2,4.99,0.00,27.9,26.0,00.0,36.5,29.5,25.6,0000.0,0007.35,0003.82,0003.06
2023-05-11 03:18:00,,0827.2,5.00,0.00,27.9,25.9,00.0,36.5,29.4,25.9,0000.0,0007.53,0003.84,0003.07
2023-05-11 03:19:00,,0827.3,5.00,0.00,27.8,25.8,00.0,36.4,29.4,26.1,0000.0,0007.58,0003.87,0003.08
2023-05-11 03:20:00,,0827.3,5.00,0.00,27.8,25.8,00.0,36.4,29.4,26.3,0000.0,0007.69,0003.92,0003.10
2023-05-11 03:21:00,,0827.3,5.00,0.00,27.8,25.7,00.0,36.4,29.4,26.6,0000.0,0007.85,0003.98,0003.12
2023-05-11 03:22:00,,0827.4,5.00,0.00,27.8,25.7,00.0,36.4,29.3,26.8,0000.0,0008.10,0004.08,0003.16
2023-05-11 03:23:00,,0827.4,5.00,0.00,27.8,25.7,00.0,36.4,29.4,27.0,0000.0,0008.24,0004.16,0003.19
2023-05-11 03:24:00,,0827.3,4.99,0.00,27.7,25.7,00.0,36.3,29.3,27.1,0000.0,0008.31,0004.20,0003.21
2023-05-11 03:25:00,,0827.4,4.99,0.00,27.7,25.6,00.0,36.3,29.3,27.3,0000.0,0008.36,0004.22,0003.24
2023-05-11 03:26:00,,0827.4,5.01,0.00,27.7,25.6,00.0,36.3,29.3,27.3,0000.0,0008.54,0004.27,0003.25
2023-05-11 03:27:00,,0827.4,5.01,0.00,27.7,25.6,00.0,36.3,29.3,27.3,0000.0,0008.67,0004.35,0003.27
2023-05-11 03:28:00,,0827.4,4.99,0.00,27.7,25.6,00.0,36.3,29.2,27.3,0000.0,0008.83,0004.44,0003.30
2023-05-11 03:29:00,,0827.5,4.99,0.00,27.6,25.6,00.0,36.2,29.2,27.3,0000.0,0008.89,0004.53,0003.32
2023-05-11 03:30:00,,0827.6,5.00,0.00,27.6,25.6,00.0,36.2,29.2,27.1,0000.0,0009.15,0004.61,0003.31
2023-05-11 03:31:00,,0827.5,5.00,0.00,27.6,25.6,00.0,36.2,29.2,27.2,0000.0,0009.26,0004.63,0003.30
2023-05-11 03:32:00,,0827.5,5.00,0.00,27.6,25.5,00.0,36.2,29.2,27.1,0000.0,0009.19,0004.60,0003.28
2023-05-11 03:33:00,,0827.7,5.01,0.00,27.6,25.5,00.0,36.2,29.2,27.0,0000.0,0009.11,0004.55,0003.23
2023-05-11 03:34:00,,0827.7,5.00,0.00,27.5,25.5,00.0,36.2,29.1,26.9,0000.0,0009.12,0004.47,0003.17
2023-05-11 03:35:00,,0827.7,5.01,0.00,27.5,25.4,00.0,36.1,29.1,27.0,0000.0,0009.30,0004.43,0003.10
2023-05-11 03:36:00,,0827.7,5.00,0.00,27.5,25.4,00.0,36.1,29.1,27.1,0000.0,0009.34,0004.43,0003.02
2023-05-11 03:37:00,,0827.7,5.01,0.00,27.5,25.4,00.0,36.1,29.1,27.2,0000.0,0009.30,0004.43,0002.96
2023-05-11 03:38:00,,0827.8,5.00,0.00,27.5,25.5,00.0,36.1,29.1,27.2,0000.0,0009.39,0004.42,0002.87
2023-05-11 03:39:00,,0827.7,4.99,0.00,27.5,25.5,00.0,36.1,29.1,27.2,0000.0,0009.32,0004.36,0002.80
2023-05-11 03:40:00,,0827.7,4.99,0.00,27.5,25.6,00.0,36.1,29.1,27.0,0000.0,0009.21,0004.26,0002.70
2023-05-11 03:41:00,,0827.7,5.00,0.00,27.5,25.6,00.0,36.0,29.1,26.9,0000.0,0009.10,0004.13,0002.62
2023-05-11 03:42:00,,0827.7,5.00,0.00,27.5,25.6,00.0,36.0,29.1,26.9,0000.0,0009.23,0004.03,0002.53
2023-05-11 03:43:00,,0827.7,5.01,0.00,27.5,25.6,00.0,36.0,29.1,26.9,0000.0,0009.09,0003.94,0002.44
2023-05-11 03:44:00,,0827.7,5.00,0.00,27.5,25.5,00.0,36.0,29.1,26.9,0000.0,0008.95,0003.87,0002.38
2023-05-11 03:45:00,,0827.7,5.00,0.00,27.4,25.5,00.0,36.0,29.1,27.0,0000.0,0009.17,0003.83,0002.35
2023-05-11 03:46:00,,0827.8,5.00,0.00,27.4,25.5,00.0,36.0,29.0,27.1,0000.0,0008.96,0003.77,0002.33
2023-05-11 03:47:00,,0827.8,5.00,0.00,27.4,25.4,00.0,36.0,29.0,27.1,0000.0,0008.81,0003.73,0002.30
2023-05-11 03:48:00,,0827.8,5.00,0.00,27.4,25.4,00.0,36.0,29.0,27.1,0000.0,0008.65,0003.64,0002.25
2023-05-11 03:49:00,,0827.8,5.00,0.00,27.4,25.4,00.0,35.9,29.0,27.0,0000.0,0008.77,0003.51,0002.21
2023-05-11 03:50:00,,0827.8,5.00,0.00,27.3,25.3,00.0,35.9,29.0,26.9,0000.0,0008.77,0003.46,0002.17
2023-05-11 03:51:00,,0827.7,5.00,0.00,27.3,25.3,00.0,35.9,29.0,27.1,0000.0,0008.68,0003.45,0002.15
2023-05-11 03:52:00,,0827.7,5.00,0.00,27.3,25.4,00.0,35.9,29.0,27.1,0000.0,0008.53,0003.43,0002.12
2023-05-11 03:53:00,,0827.7,4.99,0.00,27.3,25.4,00.0,35.9,29.0,27.2,0000.0,0008.05,0003.41,0002.11
2023-05-11 03:54:00,,0827.7,5.01,0.00,27.4,25.5,00.0,35.9,29.1,27.1,0000.0,0008.04,0003.40,0002.09
2023-05-11 03:55:00,,0827.7,5.01,0.00,27.4,25.5,00.0,35.9,29.1,27.0,0000.0,0008.10,0003.41,0002.08
2023-05-11 03:56:00,,0827.7,5.00,0.00,27.4,25.6,00.0,35.9,29.1,26.9,0000.0,0007.71,0003.39,0002.03
2023-05-11 03:57:00,,0827.7,5.00,0.00,27.4,25.6,00.0,35.9,29.1,26.8,0000.0,0008.13,0003.42,0002.00
2023-05-11 03:58:00,,0827.7,5.00,0.00,27.4,25.6,00.0,35.9,29.1,26.7,0000.0,0008.11,0003.38,0001.95
2023-05-11 03:59:00,,0827.7,4.99,0.00,27.4,25.6,00.0,35.9,29.1,26.6,0000.0,0008.07,0003.35,0001.90
